This is the latest recevied weather packets stored in our database for station/object N3TJJ-11. If no packets are shown the sender has not sent any weather packets the latest 1 day(s).
| Time | Temp. | Humidity | Pressure | Rain* | Wind** | Luminosity | Snow |
|---|---|---|---|---|---|---|---|
| 1778011425 | 25.56° C | 42% | 1006.6 hPa | 0 mm | 4.02 m/s, 233° | - | - |
| 1778011183 | 25° C | 43% | 1006.6 hPa | 0 mm | 4.47 m/s, 234° | - | - |
| 1778010824 | 25° C | 42% | 1006.6 hPa | 0 mm | 4.02 m/s, 235° | - | - |
| 1778010463 | 25° C | 42% | 1006.7 hPa | 0 mm | 4.47 m/s, 136° | - | - |
| 1778010224 | 25° C | 42% | 1006.7 hPa | 0 mm | 4.47 m/s, 188° | - | - |
| 1778009743 | 25° C | 44% | 1006.7 hPa | 0 mm | 4.47 m/s, 207° | - | - |
| 1778009625 | 25° C | 44% | 1006.6 hPa | 0 mm | 4.47 m/s, 215° | - | - |
| 1778009023 | 25° C | 45% | 1006.9 hPa | 0 mm | 4.92 m/s, 267° | - | - |
| 1778008425 | 25° C | 44% | 1007.1 hPa | 0 mm | 5.36 m/s, 230° | - | - |
| 1778008303 | 25° C | 43% | 1007.1 hPa | 0 mm | 4.92 m/s, 183° | - | - |
| 1778007825 | 25° C | 43% | 1007.1 hPa | 0 mm | 4.47 m/s, 239° | - | - |
| 1778007583 | 25° C | 44% | 1007.2 hPa | 0 mm | 4.92 m/s, 231° | - | - |
| 1778007226 | 24.44° C | 43% | 1007.3 hPa | 0 mm | 4.92 m/s, 227° | - | - |
| 1778006863 | 25° C | 43% | 1007.3 hPa | 0 mm | 4.92 m/s, 224° | - | - |
| 1778006626 | 24.44° C | 44% | 1007.3 hPa | 0 mm | 5.36 m/s, 193° | - | - |
| 1778006143 | 25° C | 44% | 1007.4 hPa | 0 mm | 4.47 m/s, 236° | - | - |
| 1778006026 | 25° C | 43% | 1007.4 hPa | 0 mm | 4.47 m/s, 205° | - | - |
| 1778005423 | 24.44° C | 44% | 1007.4 hPa | 0 mm | 4.92 m/s, 190° | - | - |
| 1778004825 | 24.44° C | 46% | 1007.6 hPa | 0 mm | 4.02 m/s, 210° | - | - |
| 1778004703 | 24.44° C | 48% | 1007.6 hPa | 0 mm | 4.02 m/s, 219° | - | - |
| 1778004225 | 24.44° C | 49% | 1007.8 hPa | 0 mm | 4.02 m/s, 251° | - | - |
| 1778003983 | 24.44° C | 48% | 1007.8 hPa | 0 mm | 4.02 m/s, 238° | - | - |
| 1778003625 | 24.44° C | 49% | 1007.9 hPa | 0 mm | 3.58 m/s, 232° | - | - |
| 1778003263 | 24.44° C | 49% | 1007.8 hPa | 0 mm | 3.58 m/s, 216° | - | - |
| 1778003027 | 24.44° C | 48% | 1007.9 hPa | 0 mm | 3.58 m/s, 253° | - | - |
* Rain latest hour (hover to see other rain measurements)
** Current wind speed in m/s (hover to see current wind gust speed)